Location: *
(60.1759°S, 155.0663°W)
Time: 16:13:06
(UTC+00:00)

NOSS 3-4 (A) - Pass Details

Date: 17 September 2019
Orbit: 910 x 1303 km, 63.4° (Epoch: 21 September)

Event Time Altitude Azimuth Distance (km) Brightness Sun altitude
Exits shadow 14:09:57 17° 263° (W) 2,726 5.3 -16.9°
Maximum altitude 14:16:14 70° 181° (S) 1,261 4.1 -16.2°
Drops below altitude 10° 14:23:22 10° 97° (E) 2,968 7.2 -15.4°
Sets 14:25:57 0° 94° (E) 3,867 8.1 -15.1°
